Regional Weather Roundup
Issued by NWS Wilmington, NC

Home | Current Version | Previous Version | Text Only | Print | Product List | Glossary On
Versions: 1 2 3 4 5 6 7 8 9 10 11 12 13 14 15 16 17 18 19 20 21 22 23 24 25 26 27 28 29 30 31 32 33 34 35 36 37 38 39 40 41 42 43 44 45 46 47 48 49 50
760
ASUS42 KILM 220713
RWRILM
RWRILM
REGIONAL HOURLY WEATHER ROUNDUP
NATIONAL WEATHER SERVICE WILMINGTON NC
300 AM EDT TUE AUG 22 2017

NOTE: "FAIR" INDICATES FEW OR NO CLOUDS BELOW 12,000 FEET WITH NO
SIGNIFICANT WEATHER AND/OR OBSTRUCTIONS TO VISIBILITY.

...............WFO WILMINGTON COUNTY WARNING AREA...............

......COASTAL NC AND SC COUNTIES......

CITY           SKY/WX    TMP DP  RH WIND       PRES   REMARKS
WILMINGTON     PTCLDY    76  75  97 NE3       30.14F
N MYRTLE BEACH MOCLDY    78  77  96 N3        30.14F
MYRTLE BEACH   NOT AVBL

......INLAND NC AND SC COUNTIES.......

CITY           SKY/WX    TMP DP  RH WIND       PRES   REMARKS
LUMBERTON      CLEAR     72  72 100 CALM      30.13F
ELIZABETHTOWN  NOT AVBL
WHITEVILLE     CLOUDY    76  75  97 CALM      30.14F
FLORENCE       PTCLDY    75  75 100 CALM      30.14F
DARLINGTON     CLEAR     74  73  97 S3        30.14F FOG
KINGSTREE      FOG       72  72 100 CALM      30.14F VSB 1
HARTSVILLE     FAIR      70  70 100 CALM      30.13F
BENNETTSVILLE  FOG       73  73 100 CALM      30.13F VSB 1/4
CONWAY         FAIR      72  72 100 CALM      30.13F FOG
GEORGETOWN     FAIR      73  72  94 CALM      30.15F
MARION         FAIR      72  72 100 CALM      30.14F

....................REST OF NORTH CAROLINA......................

.........EASTERN NC.........

CITY           SKY/WX    TMP DP  RH WIND       PRES   REMARKS
CAPE HATTERAS  CLEAR     75  74  96 E5        30.15F
JACKSONVILLE   CLEAR     73  73 100 CALM      30.15F
MOREHEAD CITY  CLEAR     76  76 100 CALM      30.14F
KENANSVILLE    PTCLDY    72  70  94 CALM      30.16S
NEW BERN       CLEAR     73  73 100 CALM      30.16S
ELIZABETH CITY CLEAR     76  76 100 S5        30.14F

.........CENTRAL NC.........

CITY           SKY/WX    TMP DP  RH WIND       PRES   REMARKS
RALEIGH DURHAM PTCLDY    76  73  91 SW6       30.15F
ROCKY MOUNT    CLEAR     72  72 100 CALM      30.14F
ROANOKE RAPIDS NOT AVBL
FAYETTEVILLE   CLEAR     76  75  97 CALM      30.14F
HOFFMAN        CLEAR     72  71  96 CALM      30.14F

.........WESTERN NC.........

CITY           SKY/WX    TMP DP  RH WIND       PRES   REMARKS
CHARLOTTE      CLEAR     75  73  93 S3        30.15F
GREENSBORO     CLEAR     71  69  93 SW5       30.14F
HICKORY        NOT AVBL
BOONE          NOT AVBL
ASHEVILLE      NOT AVBL

.....................REST OF SOUTH CAROLINA.....................

.........EASTERN SC.........

CITY           SKY/WX    TMP DP  RH WIND       PRES   REMARKS
CHARLESTON     PTCLDY    74  74 100 N5        30.13F FOG
BEAUFORT MCAS  HVY RAIN  76  76 100 N5        30.12F FOG
HILTON HEAD    CLOUDY    79  77  94 CALM      30.13S

.........CENTRAL SC.........

CITY           SKY/WX    TMP DP  RH WIND       PRES   REMARKS
COLUMBIA       PTCLDY    75  71  87 CALM      30.13F
ORANGEBURG     CLEAR     72  70  93 CALM      30.14F
SUMTER SHAW    PTCLDY    74  71  89 CALM      30.11F

.........WESTERN SC.........

CITY           SKY/WX    TMP DP  RH WIND       PRES   REMARKS
GREENVILLE     NOT AVBL
ROCK HILL      CLEAR     73  73 100 S5        30.15F
ANDERSON       CLEAR     74  71  91 CALM      30.15F
CLEMSON        NOT AVBL
GREENWOOD      CLEAR     73  73 100 CALM      30.15F


...................COASTAL AND OFFSHORE REPORTS..................

................LOCAL PIERS AND NC RESERVE................


STATION/POSITION TIME  SKY/WX   TEMP    WIND        PRES    VSBY
                                AIR SEA DIR/SP/G
                 (UTC)          (F)     (DEG/KT/KT) (MB)    (MI)
JOHNY MRCER PIER 0642                   280/  1/  3 1019.8F
NC RESRV MASNBRO NOT AVBL
OCEAN CREST PIER NOT AVBL
SPRINGMAID  PIER 0642                               1019.9F


................COASTAL AND OFFSHORE BUOYS................


STATION/POSITION TIME  SKY/WX   TEMP    WIND        PRES    VSBY
                                AIR SEA DIR/SP/G
                 (UTC)          (F)     (DEG/KT/KT) (MB)    (MI)
DIMNDSHOAL 41025 0650            82 84  320/  4/  6 1020.7F
WVE H/P(F/S)=  2/ 9 SWL H/P/D(F/S/D)=  2/150/ 9

CAPE LOOKOUT     0700            80     180/  2/  2 1020.3F
ONSLOW BAY 41036 NOT AVBL
ONSLOW BAY 41064 0608            80 83  220/  2/  4 1021.3F
ONSLOW BAY 41159 0643               83                N/A
WVE H/P(F/S)=  3/ 8 SWL H/P/D(F/S/D)=  2/150/11

MASNBO INL 41110 0629               83                N/A
WVE H/P(F/S)=  2/ 9

WILM HARBR 41108 0630               85                N/A
WVE H/P(F/S)=  2/ 9

27SE WRITB 41037 0608            83 84  180/  6/ 10 1021.1F
FRYING PAN 41013 0700            83 84  200/  8/  8 1020.1
SUNST NRSH 41024 0608            83 85  190/  6/ 10 1020.8F
CAPRS NRSH 41029 0608            81 86  190/  6/ 10 1020.7F
EDISTO     41004 0700            84 85  210/  8/ 10 1019.5


..........OFFSHORE BUOYS BEYOND 100 NM OFFSHORE...........
.....IN A TRIANGLE---HAT TO BERMUDA TO BAHAMAS TO HAT.....


STATION/POSITION TIME  SKY/WX   TEMP    WIND        PRES    VSBY
                                AIR SEA DIR/SP/G
                 (UTC)          (F)     (DEG/KT/KT) (MB)    (MI)
150E HAT   41001 0700               81   70/  4/  6 1021.7
W BERMUDA  41048 0700            82 84  320/  4/  6 1020.7
ATLANTIC S 41049 0650            82 85   50/  4/  6 1019.0F
WVE H/P(F/S)=  4/ 8 SWL H/P/D(F/S/D)=  3/110/ 8

E BAHAMAS  41046 0700            83 84   90/ 10/ 12 1017.9
NE BAHAMAS 41047 0700            83 84  130/  8/ 12 1019.8
120E CANVRL41010 0700            84 85   80/ 10/ 12 1018.7

END




USA.gov is the U.S. government's official web portal to all federal, state and local government web resources and services.